ミュラー第2彗星

131P/Mueller 2 (1997)

English version
Home page
Updated on March 26, 1999

---------------------------------------------------------------------

・ プロフィール

符号 131P/1997 M2
検出日 1997年6月29日, 7月5日
検出光度 18.9等, 19.9等
検出者 杉江淳 (ダイニック天文台), 中村彰正 (久万高原)

・ 軌道要素

   The following improved orbital elements by Kenji Muraoka, are 
  from 147 observations 1990 Sept. 15 to 1999 Feb. 14, perturbations  
  by 9 Plantes, Moon and 5 minor planets were taken into account. 
   The mean residual is +/- 0.83 arc seconds.

      Epoch  =  1997 Nov.  8.0  TT       JDT = 2450760.5
          T  =  1997 Nov. 22.20835       +/- 0.00037 (m.e.) TT
       Peri. =  179.64060                +/- 0.00021
       Node  =  214.28496                +/- 0.00020   (2000.0)
       Incl. =    7.35544                +/- 0.00005
          q  =    2.4121430              +/- 0.0000034 AU
          e  =    0.3438991              +/- 0.0000010
          a  =    3.6764819              +/- 0.0000020 AU
          n  =    0.13981553             +/- 0.00000012
          P  =    7.049                  +/- 0.0000059  years

・ 星図

・ 1996年 6月 6日〜1998年 3月 8日
・ 1997年 7月11日〜1999年 5月22日

・ 光度変化

        m1 = 9.3 + 5 logΔ + 20.0 log r

---------------------------------------------------------------------

軌道要素は村岡健治氏の計算によるものです。
星図は StellaNavigator Ver.2.0 for Windows (アストロアーツ 編著 / アスキー出版局刊) で作成したものです。
光度グラフはComet for Windowsで作成したものです。

---------------------------------------------------------------------

Copyright(C) Seiichi Yoshida (comet@aerith.net). All rights reserved.